Flag for U.S.A. Weather past 2 weeks in New York, New York, U.S.A.

Now
31 °F

Overcast.


Feels Like: 26 °F
Forecast: 30 / 39 °F
Wind: 5 mph from North

Location: New York City - Central Park

Current Time: Dec 20, 2014 at 9:10:17 AM

Latest Report: Dec 20, 2014 at 7:51 AM


Visibility: 10 mi

Pressure: 30.26 "Hg

Humidity: 61%

Dew point: 19 °F

Location of New YorkLocation

Historic Weather in New York — Graph

°F

New York temperature yesterday

Maximum temperature yesterday: 38 °F (at 12:51 AM)
Minimum temperature yesterday: 31 °F (at 10:51 PM)
Average temperature yesterday: 35 °F

Past Weeks' High & Low Weather Summary

 TemperatureHumidityPressure
High53 °F (Dec 17, 12:51 PM)96% (Dec 6, 1:02 PM)30.68 "Hg (Dec 6, 1:02 PM)
Low25 °F (Dec 8, 4:51 AM)27% (Dec 7, 11:51 PM)29.58 "Hg (Dec 10, 2:51 PM)
Average39 °F66%30.04 "Hg
* Reported Dec 5 7:51 AM — Dec 20 7:51 AM, New York, Weather by CustomWeather, © 2014

Note: Actual official high and low records may vary slightly from our data, if they occured in-between our weather recording intervals... More about our weather records

Advertising

New York weather history for previous 24 hours

 ConditionsComfort  
Time TempWeatherWind HumidityBarometerVisibility
7:51 AM
Dec 20
31 °FOvercast.5 mph61%30.26 "Hg10 mi
6:51 AM31 °FOvercast.6 mph61%30.26 "Hg10 mi
5:51 AM31 °FOvercast.6 mph61%30.25 "Hg10 mi
4:51 AM31 °FOvercast.7 mph61%30.23 "Hg10 mi
3:51 AM31 °FOvercast.7 mph61%30.22 "Hg10 mi
2:51 AM31 °FOvercast.6 mph61%30.20 "Hg10 mi
1:51 AM32 °FOvercast.8 mph61%30.19 "Hg10 mi
12:51 AM32 °FOvercast.7 mph61%30.19 "Hg10 mi
11:51 PM
Dec 19
32 °FOvercast.5 mph61%30.19 "Hg10 mi
10:51 PM31 °FClear.6 mph64%30.17 "Hg10 mi
9:51 PM32 °FClear.9 mph61%30.16 "Hg10 mi
8:51 PM32 °FPassing clouds.6 mph59%30.14 "Hg10 mi
7:51 PM32 °FPassing clouds.8 mph59%30.15 "Hg10 mi
6:51 PM32 °FPassing clouds.5 mph59%30.14 "Hg10 mi
5:51 PM33 °FPassing clouds.9 mph56%30.11 "Hg10 mi
4:51 PM33 °FPassing clouds.7 mph56%30.09 "Hg10 mi
3:51 PM35 °FSunny.N/A52%30.07 "Hg10 mi
2:51 PM36 °FSunny.6 mph50%30.04 "Hg10 mi
1:51 PM36 °FSunny.10 mph50%30.03 "Hg10 mi
12:51 PM37 °FScattered clouds.8 mph48%30.03 "Hg10 mi
11:51 AM36 °FPartly sunny.9 mph50%30.03 "Hg10 mi
10:51 AM35 °FOvercast.6 mph52%30.05 "Hg10 mi
9:51 AM35 °FOvercast.8 mph54%30.06 "Hg10 mi
Weather by CustomWeather, © 2014

See weather overviewHow to use our weather pages